Miscellaneous Local Product
Issued by NWS Hastings, NE

Home | Current Version | Previous Version | Graphics & Text | Print | Product List | Glossary On
Versions: 1 2 3 4 5 6 7 8 9 10 11 12 13 14 15 16 17 18 19 20 21 22 23 24 25 26 27 28 29 30 31 32 33 34 35 36 37 38 39 40 41 42 43 44 45 46 47 48 49 50
000
AXUS43 KGID 250102
MISGRI

GID CWA HOURLY WEATHER ROUNDUP
NATIONAL WEATHER SERVICE HASTINGS NE
800 PM CDT SUN MAY 24 2015

NOTE: "FAIR" INDICATES FEW OR NO CLOUDS BELOW 12,000 FEET WITH NO
SIGNIFICANT WEATHER AND/OR OBSTRUCTIONS TO VISIBILITY.

...SOUTH CENTRAL NEBRASKA...

CITY           SKY/WX    TMP DP  RH WIND       PRES   REMARKS
GRAND ISLAND   CLOUDY    65  58  78 S6        29.79F
HASTINGS       CLOUDY    64  58  80 SE6       29.78F
KEARNEY        CLOUDY    63  57  82 SE8       29.79S
ORD            CLOUDY    64  58  80 E6        29.76F
YORK           CLOUDY    64  61  88 S5        29.79F
AURORA         CLOUDY    66  59  77 S6        29.79F
LEXINGTON      CLOUDY    64  59  83 SE7       29.79R
HOLDREGE       CLOUDY    64  58  78 SE8       29.78S
HEBRON         CLOUDY    65  60  84 SE5       29.79F

...NEBRASKA PANHANDLE...

CITY           SKY/WX    TMP DP  RH WIND       PRES   REMARKS
CHADRON        CLOUDY    58  54  86 N15       29.80R
ALLIANCE       CLOUDY    64  52  64 S6        29.75F
SCOTTSBLUFF    CLOUDY    56  44  64 W13       29.80R
SIDNEY         CLOUDY    52  48  86 NE5       29.81F

...WESTERN AND NORTH CENTRAL NEBRASKA...

CITY           SKY/WX    TMP DP  RH WIND       PRES   REMARKS
VALENTINE      CLOUDY    62  57  83 E12       29.80S
AINSWORTH      CLOUDY    62  59  92 E8        29.80S
ONEILL         CLOUDY    62  60  94 CALM      29.80F
BROKEN BOW     MOCLDY    65  58  78 SE8       29.78S
NORTH PLATTE   MOCLDY    64  55  72 SE12      29.78S
MCCOOK         MOCLDY    66  58  75 SE15      29.76S

...EASTERN NEBRASKA...

CITY           SKY/WX    TMP DP  RH WIND       PRES   REMARKS
NORFOLK        CLOUDY    64  59  83 W3        29.78S
SO SIOUX CITY  CLOUDY    63  60  90 N6        29.77F FOG
TEKAMAH        CLOUDY    67  62  84 W5        29.77S
COLUMBUS       CLOUDY    66  55  68 SW3       29.81F
ALBION         CLOUDY    65  58  79 CALM      29.79F
OMAHA EPPLEY   CLOUDY    69  61  75 SW3       29.77F
OFFUTT AFB     CLOUDY    69  61  77 S7        29.76F
MILLARD        CLOUDY    70  62  75 SW5       29.77F
LINCOLN        CLOUDY    67  61  81 SW5       29.78F
NEBRASKA CITY  CLOUDY    66  59  77 SW10      29.79F
BEATRICE       CLOUDY    66  60  82 SW8       29.78F
FALLS CITY     CLOUDY    66  61  84 S5        29.78F

...NORTHERN KANSAS...

CITY           SKY/WX    TMP DP  RH WIND       PRES   REMARKS
GOODLAND       TSTM      51  48  89 W15G35    29.84R
HILL CITY      CLOUDY    67  59  75 SE8       29.77S
NORTON         MOCLDY    66  57  72 E8        29.77S
PHILLIPSBURG   MOCLDY    70  61  73 E6        29.78R HAZE
SMITH CENTER   CLOUDY    64  61  88 E10       29.78F
HAYS           CLOUDY    63  55  77 S12       29.78F
RUSSELL        CLOUDY    65  61  87 S12       29.78S
CONCORDIA      CLOUDY    65  61  87 SE9       29.78F
SALINA         CLOUDY    67  61  81 S10       29.80F
TOPEKA         CLOUDY    66  62  87 CALM      29.81F



USA.gov is the U.S. government's official web portal to all federal, state and local government web resources and services.